map of COR home
COR - Airport
Location
City:  Córdoba, Córdoba, Argentina
Name:Ingeniero Aeronáutico Ambrosio L.V. Taravella International Airport
ICAO:SACO
IATA:COR

Details
Type:Airport (Aerodrome, Airfield)
Use:Public/Civil, International (customs port of entry)
Latitude:31°19'25"S (-31.323618)
Longitude:64°12'29"W (-64.207952)
Datum:WGS 1984
Elevation:1604 ft (489 m)
Variation:5.79°W (WMM2015v2 magnetic declination)
-0.19° annual change
Runways:2
Longest:10410 × 148 ft (3173 × 45 m), paved

Time
Time Zone:UTC-3
Local Time:

Weather
METAR:SACO 041400Z 04007KT 9999 SCT035 23/12 Q1023 NOSIG
TAF:SACO 041100Z 0412/0512 05005KT 9999 FEW035 TX27/0418Z TN15/0510Z
BECMG 0415/0418 05010KT CAVOK

Related Locations
Nearby:
Farthest:HFE: 12356 mi / 19885 km
Hefei [Hefei Xinqiao Intl], 34, CN

Find:

   beyond  
but within

Other Information
Maps:
NOTAMs:
Links:
Sources:

  
  • flag of Argentina
  • flag of Córdoba
  

Sectional Chart

Flight Planning
at skyvector.com

Satellite Image

Google Maps Satellite view

 

Copyright © 2004-2019 Karl L. Swartz. All rights reserved.
The Great Circle Mapper name and logo are trademarks of the Great Circle Mapper.
All other trademarks mentioned herein belong to their respective owners.
Please see credits for attibutions and further copyright information.

  Follow gcmap on Facebook Follow gcmap on Twitter GCmap on LinkedIn

hCard Microformat

Geo Microformat